sat.trackr.live / text

‹ back to catalog

STARLINK-11140 [DTC]

NORAD 60039 · 2024-112B

PAYLOAD ACTIVE UNKNOWN

§ Identity

Operator
Country
US
Launch date
2024-06-08
Launch site
AFWTR
Launch vehicle
Mass (kg)
RCS (m²)

Purposes: comms

External: N2YO · Heavens-Above · Gunter

§ Orbital elements

Epoch: 2026-09-21T15:22:29.532576Z

Period
91.74 min
Inclination
53.1593°
Eccentricity
0.0001045
Mean motion
15.69704775 rev/d
Perigee alt
359.0 km
Apogee alt
360.4 km
Semi-major
6,737.9 km
B*
-3.0434e-6
RAAN
20.5722°
Arg perigee
93.7615°
Mean anomaly
266.3522°
Rev number
13,175

§ Raw data

STARLINK-11140 [DTC]1 60039U 24112B   26264.64061959 -.00000957  00000+0 -30434-5 0  99992 60039  53.1593  20.5722 0001045  93.7615 266.3522 15.69704775131759

JSON: /api/v1/satellites/60039 · /tle

For live sub-satellite position, see the globe view (requires WebGL).

§ Visibility from observer

Set your observer location to see the next 7 days of passes ≥ 10°. The values pass through the URL so the page stays shareable.

No JS? Fill the form by hand. The geolocation button needs JavaScript.